Location: Stilling
(56.0622°N, 9.9882°E)
Time: 13:24:52
(UTC+00:00)

Cosmos 1727 Rocket - Pass Details

Date: 13 July 2020
Orbit: 961 x 996 km, 82.9° (Epoch: 06 August)

Event Time Altitude Azimuth Distance (km) Brightness Sun altitude
Rises 21:48:41 0° 348° (NNW) 3,681 9.0 -9.6°
Reaches altitude 10° 21:51:13 10° 351° (N) 2,735 7.8 -9.7°
Maximum altitude 21:57:29 70° 75° (ENE) 1,044 4.2 -10.1°
Enters shadow 22:03:09 13° 158° (SSE) 2,519 5.5 -10.3°
